Time,TemperatureF,DewpointF,PressureIn,WindDirection,WindDirectionDegrees,WindSpeedMPH,WindSpeedGustMPH,Humidity,HourlyPrecipIn,Conditions,Clouds,dailyrainin,SoftwareType,DateUTC
2013-07-07 00:02:00,71.3,67.9,29.97,ESE,121,2.0,2.0,89,0.00,,,0.00,Wunderground v.1.15,2013-07-07 05:02:00,
2013-07-07 00:08:00,71.4,68.0,29.97,ESE,123,2.0,2.0,89,0.00,,,0.00,Wunderground v.1.15,2013-07-07 05:08:00,
2013-07-07 00:14:00,71.4,68.0,29.97,ESE,123,1.0,1.0,89,0.00,,,0.00,Wunderground v.1.15,2013-07-07 05:14:00,
2013-07-07 00:20:00,71.3,67.9,29.97,ESE,123,0.0,1.0,89,0.00,,,0.00,Wunderground v.1.15,2013-07-07 05:20:00,
2013-07-07 00:26:00,71.0,67.6,29.97,SE,137,1.0,3.0,89,0.00,,,0.00,Wunderground v.1.15,2013-07-07 05:26:00,
2013-07-07 00:32:00,70.8,67.7,29.96,SE,130,2.0,3.0,90,0.00,,,0.00,Wunderground v.1.15,2013-07-07 05:32:00,
2013-07-07 00:38:00,70.7,67.6,29.96,SSE,148,2.0,3.0,90,0.00,,,0.00,Wunderground v.1.15,2013-07-07 05:38:00,
2013-07-07 00:44:00,70.6,67.5,29.96,SSE,156,1.0,1.0,90,0.00,,,0.00,Wunderground v.1.15,2013-07-07 05:44:00,
2013-07-07 00:50:00,70.6,67.5,29.96,South,178,1.0,1.0,90,0.00,,,0.00,Wunderground v.1.15,2013-07-07 05:50:00,
2013-07-07 00:56:00,70.5,67.4,29.96,SSE,168,1.0,2.0,90,0.00,,,0.00,Wunderground v.1.15,2013-07-07 05:56:00,
2013-07-07 01:02:00,70.4,67.3,29.96,South,187,1.0,1.0,90,0.00,,,0.00,Wunderground v.1.15,2013-07-07 06:02:00,
2013-07-07 01:08:00,70.4,67.0,29.96,South,190,1.0,2.0,89,0.00,,,0.00,Wunderground v.1.15,2013-07-07 06:08:00,
2013-07-07 01:14:00,70.2,66.8,29.96,SSW,195,1.0,2.0,89,0.00,,,0.00,Wunderground v.1.15,2013-07-07 06:14:00,
2013-07-07 01:20:00,70.2,66.8,29.96,SSW,197,1.0,1.0,89,0.00,,,0.00,Wunderground v.1.15,2013-07-07 06:20:00,
2013-07-07 01:26:00,70.2,66.8,29.96,South,191,0.0,1.0,89,0.00,,,0.00,Wunderground v.1.15,2013-07-07 06:26:00,
2013-07-07 01:32:00,70.1,66.7,29.96,South,191,0.0,0.0,89,0.00,,,0.00,Wunderground v.1.15,2013-07-07 06:32:00,
2013-07-07 01:38:00,69.9,66.5,29.95,South,191,0.0,0.0,89,0.00,,,0.00,Wunderground v.1.15,2013-07-07 06:38:00,
2013-07-07 01:44:00,69.7,66.3,29.95,South,191,0.0,0.0,89,0.00,,,0.00,Wunderground v.1.15,2013-07-07 06:44:00,
2013-07-07 01:50:00,69.5,66.1,29.95,South,191,0.0,0.0,89,0.00,,,0.00,Wunderground v.1.15,2013-07-07 06:50:00,
2013-07-07 01:56:00,69.4,66.3,29.95,South,191,0.0,1.0,90,0.00,,,0.00,Wunderground v.1.15,2013-07-07 06:56:00,
2013-07-07 02:02:00,69.3,66.2,29.95,South,191,0.0,1.0,90,0.00,,,0.00,Wunderground v.1.15,2013-07-07 07:02:00,
2013-07-07 02:08:00,69.1,66.0,29.94,South,191,0.0,1.0,90,0.00,,,0.00,Wunderground v.1.15,2013-07-07 07:08:00,
2013-07-07 02:14:00,69.0,65.9,29.94,South,190,0.0,3.0,90,0.00,,,0.00,Wunderground v.1.15,2013-07-07 07:14:00,
2013-07-07 02:20:00,69.0,65.9,29.95,South,190,0.0,0.0,90,0.00,,,0.00,Wunderground v.1.15,2013-07-07 07:20:00,
2013-07-07 02:26:00,69.1,66.0,29.95,SSW,202,0.0,0.0,90,0.00,,,0.00,Wunderground v.1.15,2013-07-07 07:26:00,
2013-07-07 02:32:00,69.1,66.0,29.94,SSW,200,0.0,2.0,90,0.00,,,0.00,Wunderground v.1.15,2013-07-07 07:32:00,
2013-07-07 02:38:00,69.3,65.9,29.94,SSW,202,1.0,2.0,89,0.00,,,0.00,Wunderground v.1.15,2013-07-07 07:38:00,
2013-07-07 02:44:00,69.4,66.0,29.94,SSW,202,1.0,1.0,89,0.00,,,0.00,Wunderground v.1.15,2013-07-07 07:44:00,
2013-07-07 02:50:00,69.3,65.9,29.94,SSW,202,0.0,0.0,89,0.00,,,0.00,Wunderground v.1.15,2013-07-07 07:50:00,
2013-07-07 02:56:00,69.3,65.9,29.94,SSW,202,0.0,0.0,89,0.00,,,0.00,Wunderground v.1.15,2013-07-07 07:56:00,
2013-07-07 03:02:00,69.2,65.8,29.94,SSW,202,0.0,0.0,89,0.00,,,0.00,Wunderground v.1.15,2013-07-07 08:02:00,
2013-07-07 03:08:00,69.1,65.7,29.94,SSW,202,0.0,1.0,89,0.00,,,0.00,Wunderground v.1.15,2013-07-07 08:08:00,
2013-07-07 03:14:00,69.1,65.7,29.94,SSW,202,1.0,1.0,89,0.00,,,0.00,Wunderground v.1.15,2013-07-07 08:14:00,
2013-07-07 03:20:00,69.1,65.7,29.95,SSW,202,1.0,1.0,89,0.00,,,0.00,Wunderground v.1.15,2013-07-07 08:20:00,
2013-07-07 03:26:00,69.0,65.6,29.94,SSW,202,0.0,1.0,89,0.00,,,0.00,Wunderground v.1.15,2013-07-07 08:26:00,
2013-07-07 03:32:00,68.9,65.8,29.95,SSW,202,0.0,0.0,90,0.00,,,0.00,Wunderground v.1.15,2013-07-07 08:32:00,
2013-07-07 03:38:00,68.8,65.4,29.95,SSW,203,0.0,1.0,89,0.00,,,0.00,Wunderground v.1.15,2013-07-07 08:38:00,
2013-07-07 03:44:00,68.8,65.7,29.94,SSW,203,1.0,2.0,90,0.00,,,0.00,Wunderground v.1.15,2013-07-07 08:44:00,
2013-07-07 03:50:00,68.9,65.8,29.94,SSW,201,0.0,0.0,90,0.00,,,0.00,Wunderground v.1.15,2013-07-07 08:50:00,
2013-07-07 03:56:00,68.9,65.5,29.94,SSW,213,0.0,1.0,89,0.00,,,0.00,Wunderground v.1.15,2013-07-07 08:56:00,
2013-07-07 04:02:00,69.0,65.3,29.94,SW,226,1.0,1.0,88,0.00,,,0.00,Wunderground v.1.15,2013-07-07 09:02:00,
2013-07-07 04:08:00,69.1,65.4,29.94,SW,225,2.0,2.0,88,0.00,,,0.00,Wunderground v.1.15,2013-07-07 09:08:00,
2013-07-07 04:14:00,69.1,65.1,29.94,SSW,200,1.0,4.0,87,0.00,,,0.00,Wunderground v.1.15,2013-07-07 09:14:00,
2013-07-07 04:20:00,69.0,65.0,29.94,SSW,203,1.0,4.0,87,0.00,,,0.00,Wunderground v.1.15,2013-07-07 09:20:00,
2013-07-07 04:26:00,68.9,64.9,29.94,SSW,203,0.0,1.0,87,0.00,,,0.00,Wunderground v.1.15,2013-07-07 09:26:00,
2013-07-07 04:32:00,68.6,64.6,29.94,SSW,203,0.0,0.0,87,0.00,,,0.00,Wunderground v.1.15,2013-07-07 09:32:00,
2013-07-07 04:38:00,68.3,64.3,29.94,SSW,203,0.0,1.0,87,0.00,,,0.00,Wunderground v.1.15,2013-07-07 09:38:00,
2013-07-07 04:44:00,67.9,63.9,29.94,SSW,203,0.0,0.0,87,0.00,,,0.00,Wunderground v.1.15,2013-07-07 09:44:00,
2013-07-07 04:50:00,67.8,64.1,29.94,SSW,202,1.0,2.0,88,0.00,,,0.00,Wunderground v.1.15,2013-07-07 09:50:00,
2013-07-07 04:56:00,67.8,64.1,29.94,SSW,206,2.0,2.0,88,0.00,,,0.00,Wunderground v.1.15,2013-07-07 09:56:00,
2013-07-07 05:02:00,67.7,64.0,29.94,SSW,206,1.0,1.0,88,0.00,,,0.00,Wunderground v.1.15,2013-07-07 10:02:00,
2013-07-07 05:08:00,67.6,63.9,29.94,SSW,206,0.0,1.0,88,0.00,,,0.00,Wunderground v.1.15,2013-07-07 10:08:00,
2013-07-07 05:14:00,67.5,63.8,29.94,SSW,207,1.0,2.0,88,0.00,,,0.00,Wunderground v.1.15,2013-07-07 10:14:00,
2013-07-07 05:20:00,67.4,64.0,29.94,SSW,207,1.0,3.0,89,0.00,,,0.00,Wunderground v.1.15,2013-07-07 10:20:00,
2013-07-07 05:26:00,67.4,64.0,29.95,SSW,207,0.0,1.0,89,0.00,,,0.00,Wunderground v.1.15,2013-07-07 10:26:00,
2013-07-07 05:32:00,67.3,63.9,29.95,SSW,207,0.0,0.0,89,0.00,,,0.00,Wunderground v.1.15,2013-07-07 10:32:00,
2013-07-07 05:38:00,67.1,63.7,29.95,SSW,204,0.0,0.0,89,0.00,,,0.00,Wunderground v.1.15,2013-07-07 10:38:00,
2013-07-07 05:44:00,67.1,63.7,29.95,SSW,204,0.0,0.0,89,0.00,,,0.00,Wunderground v.1.15,2013-07-07 10:44:00,
2013-07-07 05:50:00,67.1,63.7,29.95,SSW,204,0.0,0.0,89,0.00,,,0.00,Wunderground v.1.15,2013-07-07 10:50:00,
2013-07-07 05:56:00,67.1,63.7,29.96,SSW,204,0.0,1.0,89,0.00,,,0.00,Wunderground v.1.15,2013-07-07 10:56:00,
2013-07-07 06:02:00,67.2,63.8,29.96,SSW,204,1.0,1.0,89,0.00,,,0.00,Wunderground v.1.15,2013-07-07 11:02:00,
2013-07-07 06:08:00,67.4,64.0,29.96,SSW,197,1.0,2.0,89,0.00,,,0.00,Wunderground v.1.15,2013-07-07 11:08:00,
2013-07-07 06:14:00,67.6,63.9,29.96,SSW,200,1.0,1.0,88,0.00,,,0.00,Wunderground v.1.15,2013-07-07 11:14:00,
2013-07-07 06:20:00,67.7,64.0,29.96,SSW,200,1.0,1.0,88,0.00,,,0.00,Wunderground v.1.15,2013-07-07 11:20:00,
2013-07-07 06:26:00,67.8,64.1,29.96,SSW,200,0.0,1.0,88,0.00,,,0.00,Wunderground v.1.15,2013-07-07 11:26:00,
2013-07-07 06:32:00,67.9,63.9,29.97,SW,222,1.0,1.0,87,0.00,,,0.00,Wunderground v.1.15,2013-07-07 11:32:00,
2013-07-07 06:38:00,68.1,64.1,29.96,SW,217,1.0,1.0,87,0.00,,,0.00,Wunderground v.1.15,2013-07-07 11:38:00,
2013-07-07 06:44:00,68.2,64.2,29.97,SW,217,1.0,1.0,87,0.00,,,0.00,Wunderground v.1.15,2013-07-07 11:44:00,
2013-07-07 06:50:00,68.3,64.3,29.97,SW,217,1.0,1.0,87,0.00,,,0.00,Wunderground v.1.15,2013-07-07 11:50:00,
2013-07-07 06:56:00,68.6,64.6,29.97,SW,217,1.0,1.0,87,0.00,,,0.00,Wunderground v.1.15,2013-07-07 11:56:00,
2013-07-07 07:02:00,69.1,64.4,29.97,SW,216,1.0,3.0,85,0.00,,,0.00,Wunderground v.1.15,2013-07-07 12:02:00,
2013-07-07 07:08:00,69.5,64.5,29.97,SW,223,1.0,3.0,84,0.00,,,0.00,Wunderground v.1.15,2013-07-07 12:08:00,
2013-07-07 07:14:00,69.9,64.8,29.97,SW,219,2.0,3.0,84,0.00,,,0.00,Wunderground v.1.15,2013-07-07 12:14:00,
2013-07-07 07:20:00,70.4,65.3,29.97,SW,219,1.0,3.0,84,0.00,,,0.00,Wunderground v.1.15,2013-07-07 12:20:00,
2013-07-07 07:26:00,71.0,65.9,29.97,SW,219,2.0,2.0,84,0.00,,,0.00,Wunderground v.1.15,2013-07-07 12:26:00,
2013-07-07 07:32:00,71.3,65.5,29.97,SW,219,2.0,3.0,82,0.00,,,0.00,Wunderground v.1.15,2013-07-07 12:32:00,
2013-07-07 07:38:00,71.5,65.7,29.97,SW,217,3.0,4.0,82,0.00,,,0.00,Wunderground v.1.15,2013-07-07 12:38:00,
2013-07-07 07:44:00,71.9,66.1,29.97,SW,220,3.0,3.0,82,0.00,,,0.00,Wunderground v.1.15,2013-07-07 12:44:00,
2013-07-07 07:50:00,72.2,65.7,29.96,SSW,213,3.0,3.0,80,0.00,,,0.00,Wunderground v.1.15,2013-07-07 12:50:00,
2013-07-07 07:56:00,72.4,66.2,29.96,SSW,207,2.0,3.0,81,0.00,,,0.00,Wunderground v.1.15,2013-07-07 12:56:00,
2013-07-07 08:02:00,72.5,66.7,29.96,SSW,207,1.0,3.0,82,0.00,,,0.00,Wunderground v.1.15,2013-07-07 13:02:00,
2013-07-07 08:08:00,72.8,66.6,29.96,SSW,207,1.0,3.0,81,0.00,,,0.00,Wunderground v.1.15,2013-07-07 13:08:00,
2013-07-07 08:14:00,73.2,67.0,29.96,SSW,207,2.0,4.0,81,0.00,,,0.00,Wunderground v.1.15,2013-07-07 13:14:00,
2013-07-07 08:20:00,73.8,66.9,29.97,SSW,209,2.0,4.0,79,0.00,,,0.00,Wunderground v.1.15,2013-07-07 13:20:00,
2013-07-07 08:26:00,74.3,67.4,29.97,SSW,202,2.0,3.0,79,0.00,,,0.00,Wunderground v.1.15,2013-07-07 13:26:00,
2013-07-07 08:32:00,74.8,67.8,29.97,SSW,201,1.0,2.0,79,0.00,,,0.00,Wunderground v.1.15,2013-07-07 13:32:00,
2013-07-07 08:38:00,74.9,67.6,29.97,SSW,202,1.0,2.0,78,0.00,,,0.00,Wunderground v.1.15,2013-07-07 13:38:00,
2013-07-07 08:44:00,74.8,67.5,29.97,SSW,203,1.0,3.0,78,0.00,,,0.00,Wunderground v.1.15,2013-07-07 13:44:00,
2013-07-07 08:50:00,74.4,67.5,29.97,SSW,213,1.0,3.0,79,0.00,,,0.00,Wunderground v.1.15,2013-07-07 13:50:00,
2013-07-07 08:56:00,74.2,67.3,29.97,SSW,211,2.0,2.0,79,0.00,,,0.00,Wunderground v.1.15,2013-07-07 13:56:00,
2013-07-07 09:02:00,74.3,67.7,29.97,SSW,209,2.0,3.0,80,0.00,,,0.00,Wunderground v.1.15,2013-07-07 14:02:00,
2013-07-07 09:08:00,74.4,67.5,29.96,SW,219,2.0,3.0,79,0.00,,,0.00,Wunderground v.1.15,2013-07-07 14:08:00,
2013-07-07 09:14:00,74.5,67.9,29.96,SSW,213,2.0,2.0,80,0.00,,,0.00,Wunderground v.1.15,2013-07-07 14:14:00,
2013-07-07 09:20:00,74.7,68.1,29.96,SSW,213,2.0,3.0,80,0.00,,,0.00,Wunderground v.1.15,2013-07-07 14:20:00,
2013-07-07 09:26:00,74.8,68.2,29.96,SSW,213,2.0,3.0,80,0.00,,,0.00,Wunderground v.1.15,2013-07-07 14:26:00,
2013-07-07 09:32:00,75.0,69.1,29.96,SSW,212,1.0,1.0,82,0.00,,,0.00,Wunderground v.1.15,2013-07-07 14:32:00,
2013-07-07 09:38:00,75.2,68.2,29.96,SSW,213,1.0,1.0,79,0.00,,,0.00,Wunderground v.1.15,2013-07-07 14:38:00,
2013-07-07 09:44:00,75.4,68.8,29.96,SSW,210,1.0,1.0,80,0.00,,,0.00,Wunderground v.1.15,2013-07-07 14:44:00,
2013-07-07 09:50:00,75.5,69.3,29.96,SSW,210,1.0,1.0,81,0.00,,,0.00,Wunderground v.1.15,2013-07-07 14:50:00,
2013-07-07 09:56:00,75.7,68.7,29.96,SSW,210,1.0,2.0,79,0.00,,,0.00,Wunderground v.1.15,2013-07-07 14:56:00,
2013-07-07 10:02:00,76.0,69.0,29.96,SSW,209,1.0,1.0,79,0.00,,,0.00,Wunderground v.1.15,2013-07-07 15:02:00,
2013-07-07 10:08:00,76.4,69.4,29.96,SW,216,2.0,2.0,79,0.00,,,0.00,Wunderground v.1.15,2013-07-07 15:08:00,
2013-07-07 10:14:00,76.6,69.2,29.96,SW,216,1.0,1.0,78,0.00,,,0.00,Wunderground v.1.15,2013-07-07 15:14:00,
2013-07-07 10:20:00,76.7,69.7,29.96,SW,216,1.0,1.0,79,0.00,,,0.00,Wunderground v.1.15,2013-07-07 15:20:00,
2013-07-07 10:26:00,77.4,70.4,29.96,SW,216,1.0,2.0,79,0.00,,,0.00,Wunderground v.1.15,2013-07-07 15:26:00,
2013-07-07 10:32:00,78.3,70.5,29.96,SSW,213,1.0,1.0,77,0.00,,,0.00,Wunderground v.1.15,2013-07-07 15:32:00,
2013-07-07 10:38:00,78.9,71.1,29.96,SW,215,1.0,1.0,77,0.00,,,0.00,Wunderground v.1.15,2013-07-07 15:38:00,
2013-07-07 10:44:00,79.1,70.5,29.96,South,184,1.0,4.0,75,0.00,,,0.00,Wunderground v.1.15,2013-07-07 15:44:00,
2013-07-07 10:50:00,79.1,70.9,29.96,SSW,199,2.0,4.0,76,0.00,,,0.00,Wunderground v.1.15,2013-07-07 15:50:00,
2013-07-07 10:56:00,79.6,70.6,29.96,SSW,207,2.0,2.0,74,0.00,,,0.00,Wunderground v.1.15,2013-07-07 15:56:00,
2013-07-07 11:02:00,80.4,71.3,29.96,SW,226,2.0,2.0,74,0.00,,,0.00,Wunderground v.1.15,2013-07-07 16:02:00,
2013-07-07 11:08:00,81.3,71.8,29.96,SSW,205,2.0,2.0,73,0.00,,,0.00,Wunderground v.1.15,2013-07-07 16:08:00,
2013-07-07 11:14:00,81.3,70.6,29.95,SSW,207,2.0,5.0,70,0.00,,,0.00,Wunderground v.1.15,2013-07-07 16:14:00,
2013-07-07 11:20:00,81.5,72.4,29.95,SW,219,2.0,5.0,74,0.00,,,0.00,Wunderground v.1.15,2013-07-07 16:20:00,
2013-07-07 11:26:00,82.2,72.3,29.95,South,176,2.0,3.0,72,0.00,,,0.00,Wunderground v.1.15,2013-07-07 16:26:00,
2013-07-07 11:32:00,82.9,73.8,29.95,SSW,192,2.0,4.0,74,0.00,,,0.00,Wunderground v.1.15,2013-07-07 16:32:00,
2013-07-07 11:38:00,83.4,71.7,29.95,SSW,197,2.0,7.0,68,0.00,,,0.00,Wunderground v.1.15,2013-07-07 16:38:00,
2013-07-07 11:44:00,83.1,71.4,29.96,SSW,198,2.0,2.0,68,0.00,,,0.00,Wunderground v.1.15,2013-07-07 16:44:00,
2013-07-07 11:50:00,82.7,71.1,29.96,South,190,1.0,2.0,68,0.00,,,0.00,Wunderground v.1.15,2013-07-07 16:50:00,
2013-07-07 11:56:00,83.0,71.3,29.95,SSE,155,1.0,4.0,68,0.00,,,0.00,Wunderground v.1.15,2013-07-07 16:56:00,
2013-07-07 12:02:00,83.1,71.9,29.95,SSW,202,2.0,2.0,69,0.00,,,0.00,Wunderground v.1.15,2013-07-07 17:02:00,
2013-07-07 12:08:00,83.8,73.0,29.95,SW,228,2.0,4.0,70,0.00,,,0.00,Wunderground v.1.15,2013-07-07 17:08:00,
2013-07-07 12:14:00,84.2,72.5,29.95,South,175,2.0,2.0,68,0.00,,,0.00,Wunderground v.1.15,2013-07-07 17:14:00,
2013-07-07 12:20:00,84.6,73.3,29.95,SSW,198,2.0,4.0,69,0.00,,,0.00,Wunderground v.1.15,2013-07-07 17:20:00,
2013-07-07 12:26:00,84.9,73.6,29.95,SSE,154,2.0,3.0,69,0.00,,,0.00,Wunderground v.1.15,2013-07-07 17:26:00,
2013-07-07 12:32:00,85.2,73.4,29.95,South,190,2.0,2.0,68,0.00,,,0.00,Wunderground v.1.15,2013-07-07 17:32:00,
2013-07-07 12:38:00,85.4,74.1,29.95,South,184,2.0,3.0,69,0.00,,,0.00,Wunderground v.1.15,2013-07-07 17:38:00,
2013-07-07 12:44:00,85.7,74.4,29.95,SSW,198,1.0,2.0,69,0.00,,,0.00,Wunderground v.1.15,2013-07-07 17:44:00,
2013-07-07 12:50:00,86.1,74.3,29.95,SSE,165,1.0,2.0,68,0.00,,,0.00,Wunderground v.1.15,2013-07-07 17:50:00,
2013-07-07 12:56:00,86.2,74.8,29.94,SSW,201,2.0,4.0,69,0.00,,,0.00,Wunderground v.1.15,2013-07-07 17:56:00,
2013-07-07 13:02:00,86.1,73.4,29.94,South,169,2.0,6.0,66,0.00,,,0.00,Wunderground v.1.15,2013-07-07 18:02:00,
2013-07-07 13:08:00,85.9,74.1,29.94,SSE,157,3.0,6.0,68,0.00,,,0.00,Wunderground v.1.15,2013-07-07 18:08:00,
2013-07-07 13:14:00,86.1,74.3,29.94,SE,145,3.0,4.0,68,0.00,,,0.00,Wunderground v.1.15,2013-07-07 18:14:00,
2013-07-07 13:20:00,86.2,75.3,29.93,SSE,166,2.0,2.0,70,0.00,,,0.00,Wunderground v.1.15,2013-07-07 18:20:00,
2013-07-07 13:26:00,86.5,72.9,29.93,South,177,2.0,3.0,64,0.00,,,0.00,Wunderground v.1.15,2013-07-07 18:26:00,
2013-07-07 13:32:00,87.0,74.3,29.93,SSW,206,2.0,2.0,66,0.00,,,0.00,Wunderground v.1.15,2013-07-07 18:32:00,
2013-07-07 13:38:00,87.4,74.2,29.93,SSW,203,2.0,3.0,65,0.00,,,0.00,Wunderground v.1.15,2013-07-07 18:38:00,
2013-07-07 13:44:00,87.7,74.0,29.93,SSW,209,2.0,3.0,64,0.00,,,0.00,Wunderground v.1.15,2013-07-07 18:44:00,
2013-07-07 13:50:00,87.8,74.6,29.93,SW,234,3.0,3.0,65,0.00,,,0.00,Wunderground v.1.15,2013-07-07 18:50:00,
2013-07-07 13:56:00,87.7,75.4,29.93,South,171,3.0,5.0,67,0.00,,,0.00,Wunderground v.1.15,2013-07-07 18:56:00,
2013-07-07 14:02:00,87.7,74.9,29.93,SSW,197,3.0,5.0,66,0.00,,,0.00,Wunderground v.1.15,2013-07-07 19:02:00,
2013-07-07 14:08:00,87.7,74.0,29.93,SW,215,3.0,5.0,64,0.00,,,0.00,Wunderground v.1.15,2013-07-07 19:08:00,
2013-07-07 14:14:00,87.5,73.3,29.93,SSW,192,2.0,2.0,63,0.00,,,0.00,Wunderground v.1.15,2013-07-07 19:14:00,
2013-07-07 14:20:00,87.6,74.4,29.93,SSE,162,2.0,3.0,65,0.00,,,0.00,Wunderground v.1.15,2013-07-07 19:20:00,
2013-07-07 14:26:00,87.7,74.5,29.93,SSE,163,2.0,6.0,65,0.00,,,0.00,Wunderground v.1.15,2013-07-07 19:26:00,
2013-07-07 14:32:00,88.0,74.3,29.93,SW,214,2.0,2.0,64,0.00,,,0.00,Wunderground v.1.15,2013-07-07 19:32:00,
2013-07-07 14:38:00,87.7,73.1,29.92,WSW,241,2.0,3.0,62,0.00,,,0.00,Wunderground v.1.15,2013-07-07 19:38:00,
2013-07-07 14:44:00,87.3,72.2,29.92,SSW,194,2.0,3.0,61,0.00,,,0.00,Wunderground v.1.15,2013-07-07 19:44:00,
2013-07-07 14:50:00,87.5,72.9,29.92,SW,231,3.0,4.0,62,0.00,,,0.00,Wunderground v.1.15,2013-07-07 19:50:00,
2013-07-07 14:56:00,87.1,72.0,29.92,WSW,255,3.0,5.0,61,0.00,,,0.00,Wunderground v.1.15,2013-07-07 19:56:00,
2013-07-07 15:02:00,86.7,72.1,29.92,SW,224,4.0,5.0,62,0.00,,,0.00,Wunderground v.1.15,2013-07-07 20:02:00,
2013-07-07 15:08:00,87.0,71.9,29.92,SW,220,3.0,5.0,61,0.00,,,0.00,Wunderground v.1.15,2013-07-07 20:08:00,
2013-07-07 15:14:00,87.3,72.7,29.92,SSW,207,3.0,3.0,62,0.00,,,0.00,Wunderground v.1.15,2013-07-07 20:14:00,
2013-07-07 15:20:00,87.5,71.4,29.91,SW,215,2.0,3.0,59,0.00,,,0.00,Wunderground v.1.15,2013-07-07 20:20:00,
2013-07-07 15:26:00,87.8,72.2,29.91,SW,231,2.0,3.0,60,0.00,,,0.00,Wunderground v.1.15,2013-07-07 20:26:00,
2013-07-07 15:32:00,88.1,72.5,29.91,WSW,241,3.0,4.0,60,0.00,,,0.00,Wunderground v.1.15,2013-07-07 20:32:00,
2013-07-07 15:38:00,88.4,72.2,29.91,SW,223,3.0,4.0,59,0.00,,,0.00,Wunderground v.1.15,2013-07-07 20:38:00,
2013-07-07 15:44:00,88.8,73.6,29.91,SSW,211,2.0,3.0,61,0.00,,,0.00,Wunderground v.1.15,2013-07-07 20:44:00,
2013-07-07 15:50:00,89.8,73.6,29.91,SSW,208,2.0,3.0,59,0.00,,,0.00,Wunderground v.1.15,2013-07-07 20:50:00,
2013-07-07 15:56:00,89.8,72.0,29.90,SW,234,3.0,3.0,56,0.00,,,0.00,Wunderground v.1.15,2013-07-07 20:56:00,
2013-07-07 16:02:00,89.1,71.4,29.90,WSW,243,3.0,3.0,56,0.00,,,0.00,Wunderground v.1.15,2013-07-07 21:02:00,
2013-07-07 16:08:00,89.0,73.3,29.90,SW,231,3.0,4.0,60,0.00,,,0.00,Wunderground v.1.15,2013-07-07 21:08:00,
2013-07-07 16:14:00,89.2,75.0,29.90,SSW,197,3.0,5.0,63,0.00,,,0.00,Wunderground v.1.15,2013-07-07 21:14:00,
2013-07-07 16:20:00,88.4,71.2,29.90,SW,219,3.0,6.0,57,0.00,,,0.00,Wunderground v.1.15,2013-07-07 21:20:00,
2013-07-07 16:26:00,87.5,72.4,29.90,SW,225,3.0,6.0,61,0.00,,,0.00,Wunderground v.1.15,2013-07-07 21:26:00,
2013-07-07 16:32:00,87.6,73.4,29.90,SW,215,3.0,4.0,63,0.00,,,0.00,Wunderground v.1.15,2013-07-07 21:32:00,
2013-07-07 16:38:00,88.8,74.1,29.90,SW,221,3.0,5.0,62,0.00,,,0.00,Wunderground v.1.15,2013-07-07 21:38:00,
2013-07-07 16:44:00,89.3,72.1,29.91,SW,223,3.0,5.0,57,0.00,,,0.00,Wunderground v.1.15,2013-07-07 21:44:00,
2013-07-07 16:50:00,89.1,73.9,29.91,WSW,241,4.0,4.0,61,0.00,,,0.00,Wunderground v.1.15,2013-07-07 21:50:00,
2013-07-07 16:56:00,89.0,72.3,29.91,SW,227,4.0,4.0,58,0.00,,,0.00,Wunderground v.1.15,2013-07-07 21:56:00,
2013-07-07 17:02:00,88.5,71.3,29.91,SW,229,4.0,4.0,57,0.00,,,0.00,Wunderground v.1.15,2013-07-07 22:02:00,
2013-07-07 17:08:00,87.5,73.3,29.91,SW,232,4.0,5.0,63,0.00,,,0.00,Wunderground v.1.15,2013-07-07 22:08:00,
2013-07-07 17:14:00,86.6,72.0,29.91,SW,224,3.0,4.0,62,0.00,,,0.00,Wunderground v.1.15,2013-07-07 22:14:00,
2013-07-07 17:20:00,86.9,72.3,29.91,WSW,246,4.0,4.0,62,0.00,,,0.00,Wunderground v.1.15,2013-07-07 22:20:00,
2013-07-07 17:26:00,87.5,72.9,29.91,SW,220,4.0,7.0,62,0.00,,,0.00,Wunderground v.1.15,2013-07-07 22:26:00,
2013-07-07 17:32:00,87.5,73.8,29.91,SW,220,4.0,4.0,64,0.00,,,0.00,Wunderground v.1.15,2013-07-07 22:32:00,
2013-07-07 17:38:00,87.5,72.4,29.90,SW,229,3.0,4.0,61,0.00,,,0.00,Wunderground v.1.15,2013-07-07 22:38:00,
2013-07-07 17:44:00,87.1,72.5,29.90,SSW,211,3.0,3.0,62,0.00,,,0.00,Wunderground v.1.15,2013-07-07 22:44:00,
2013-07-07 17:50:00,87.1,72.0,29.90,WSW,250,3.0,4.0,61,0.00,,,0.00,Wunderground v.1.15,2013-07-07 22:50:00,
2013-07-07 17:56:00,87.6,73.4,29.90,SW,221,2.0,4.0,63,0.00,,,0.00,Wunderground v.1.15,2013-07-07 22:56:00,
2013-07-07 18:02:00,87.8,73.6,29.90,SW,217,2.0,3.0,63,0.00,,,0.00,Wunderground v.1.15,2013-07-07 23:02:00,
2013-07-07 18:08:00,87.9,73.3,29.90,SW,220,3.0,5.0,62,0.00,,,0.00,Wunderground v.1.15,2013-07-07 23:08:00,
2013-07-07 18:14:00,87.9,72.3,29.90,SSW,209,3.0,4.0,60,0.00,,,0.00,Wunderground v.1.15,2013-07-07 23:14:00,
2013-07-07 18:20:00,87.7,71.6,29.90,SW,229,3.0,4.0,59,0.00,,,0.00,Wunderground v.1.15,2013-07-07 23:20:00,
2013-07-07 18:26:00,87.4,71.8,29.90,WSW,242,3.0,4.0,60,0.00,,,0.00,Wunderground v.1.15,2013-07-07 23:26:00,
2013-07-07 18:32:00,87.0,72.4,29.91,WSW,243,3.0,3.0,62,0.00,,,0.00,Wunderground v.1.15,2013-07-07 23:32:00,
2013-07-07 18:38:00,86.6,72.0,29.91,WSW,242,3.0,3.0,62,0.00,,,0.00,Wunderground v.1.15,2013-07-07 23:38:00,
2013-07-07 18:44:00,86.1,72.0,29.91,WSW,248,3.0,5.0,63,0.00,,,0.00,Wunderground v.1.15,2013-07-07 23:44:00,
2013-07-07 18:50:00,85.9,72.3,29.91,WSW,249,3.0,6.0,64,0.00,,,0.00,Wunderground v.1.15,2013-07-07 23:50:00,
2013-07-07 18:56:00,85.6,72.0,29.91,WSW,250,3.0,3.0,64,0.00,,,0.00,Wunderground v.1.15,2013-07-07 23:56:00,
2013-07-07 19:02:00,85.4,72.7,29.90,WSW,242,2.0,2.0,66,0.00,,,0.00,Wunderground v.1.15,2013-07-08 00:02:00,
2013-07-07 19:08:00,85.2,72.6,29.90,WSW,242,2.0,3.0,66,0.00,,,0.00,Wunderground v.1.15,2013-07-08 00:08:00,
2013-07-07 19:14:00,84.6,72.0,29.90,SW,236,2.0,2.0,66,0.00,,,0.00,Wunderground v.1.15,2013-07-08 00:14:00,
2013-07-07 19:20:00,83.6,72.3,29.90,SW,236,2.0,2.0,69,0.00,,,0.00,Wunderground v.1.15,2013-07-08 00:20:00,
2013-07-07 19:26:00,82.7,71.9,29.90,SW,236,1.0,2.0,70,0.00,,,0.00,Wunderground v.1.15,2013-07-08 00:26:00,
2013-07-07 19:32:00,82.0,71.7,29.90,SW,236,1.0,1.0,71,0.00,,,0.00,Wunderground v.1.15,2013-07-08 00:32:00,
2013-07-07 19:38:00,81.5,71.2,29.91,SW,236,1.0,1.0,71,0.00,,,0.00,Wunderground v.1.15,2013-07-08 00:38:00,
2013-07-07 19:44:00,81.5,71.2,29.91,SW,236,1.0,1.0,71,0.00,,,0.00,Wunderground v.1.15,2013-07-08 00:44:00,
2013-07-07 19:50:00,81.6,71.3,29.91,SW,236,1.0,2.0,71,0.00,,,0.00,Wunderground v.1.15,2013-07-08 00:50:00,
2013-07-07 19:56:00,81.4,71.5,29.91,SW,236,1.0,2.0,72,0.00,,,0.00,Wunderground v.1.15,2013-07-08 00:56:00,
2013-07-07 20:02:00,81.1,72.0,29.91,SW,236,1.0,1.0,74,0.00,,,0.00,Wunderground v.1.15,2013-07-08 01:02:00,
2013-07-07 20:08:00,80.7,72.0,29.91,SW,236,0.0,1.0,75,0.00,,,0.00,Wunderground v.1.15,2013-07-08 01:08:00,
2013-07-07 20:14:00,80.3,71.6,29.91,SW,236,0.0,0.0,75,0.00,,,0.00,Wunderground v.1.15,2013-07-08 01:14:00,
2013-07-07 20:20:00,79.7,71.5,29.91,SW,236,0.0,0.0,76,0.00,,,0.00,Wunderground v.1.15,2013-07-08 01:20:00,
2013-07-07 20:22:00,79.6,71.4,29.91,SW,236,0.0,0.0,76,0.00,,,0.00,Wunderground v.1.15,2013-07-08 01:22:00,
2013-07-07 20:28:00,79.1,71.3,29.91,SW,236,0.0,0.0,77,0.00,,,0.00,Wunderground v.1.15,2013-07-08 01:28:00,
2013-07-07 20:34:00,78.8,71.4,29.91,SW,236,0.0,0.0,78,0.00,,,0.00,Wunderground v.1.15,2013-07-08 01:34:00,
2013-07-07 20:40:00,78.4,71.3,29.91,SW,236,0.0,0.0,79,0.00,,,0.00,Wunderground v.1.15,2013-07-08 01:40:00,
2013-07-07 20:46:00,78.0,71.0,29.91,SW,236,0.0,0.0,79,0.00,,,0.00,Wunderground v.1.15,2013-07-08 01:46:00,
2013-07-07 20:52:00,77.6,70.9,29.91,SW,236,0.0,0.0,80,0.00,,,0.00,Wunderground v.1.15,2013-07-08 01:52:00,
2013-07-07 20:58:00,77.3,70.6,29.91,SW,236,0.0,0.0,80,0.00,,,0.00,Wunderground v.1.15,2013-07-08 01:58:00,
2013-07-07 21:04:00,77.1,70.5,29.91,SW,236,0.0,0.0,80,0.00,,,0.00,Wunderground v.1.15,2013-07-08 02:04:00,
2013-07-07 21:10:00,76.9,70.6,29.91,SW,236,0.0,1.0,81,0.00,,,0.00,Wunderground v.1.15,2013-07-08 02:10:00,
2013-07-07 21:16:00,76.7,70.4,29.92,SW,236,0.0,0.0,81,0.00,,,0.00,Wunderground v.1.15,2013-07-08 02:16:00,
2013-07-07 21:22:00,76.5,70.6,29.92,SW,236,0.0,0.0,82,0.00,,,0.00,Wunderground v.1.15,2013-07-08 02:22:00,
2013-07-07 21:28:00,76.3,70.4,29.92,SW,236,0.0,0.0,82,0.00,,,0.00,Wunderground v.1.15,2013-07-08 02:28:00,
2013-07-07 21:34:00,76.1,70.2,29.92,SW,236,0.0,0.0,82,0.00,,,0.00,Wunderground v.1.15,2013-07-08 02:34:00,
2013-07-07 21:40:00,75.9,70.4,29.92,SW,236,0.0,0.0,83,0.00,,,0.00,Wunderground v.1.15,2013-07-08 02:40:00,
2013-07-07 21:46:00,75.8,70.3,29.92,SW,236,0.0,0.0,83,0.00,,,0.00,Wunderground v.1.15,2013-07-08 02:46:00,
2013-07-07 21:52:00,75.6,70.4,29.92,SW,236,0.0,0.0,84,0.00,,,0.00,Wunderground v.1.15,2013-07-08 02:52:00,
2013-07-07 21:58:00,75.5,70.7,29.93,SW,236,0.0,0.0,85,0.00,,,0.00,Wunderground v.1.15,2013-07-08 02:58:00,
2013-07-07 22:04:00,75.3,70.5,29.93,SW,236,0.0,0.0,85,0.00,,,0.00,Wunderground v.1.15,2013-07-08 03:04:00,
2013-07-07 22:10:00,75.2,70.4,29.93,SW,236,0.0,0.0,85,0.00,,,0.00,Wunderground v.1.15,2013-07-08 03:10:00,
2013-07-07 22:16:00,75.1,70.3,29.92,SW,236,0.0,0.0,85,0.00,,,0.00,Wunderground v.1.15,2013-07-08 03:16:00,
2013-07-07 22:22:00,75.0,70.5,29.92,SW,236,0.0,0.0,86,0.00,,,0.00,Wunderground v.1.15,2013-07-08 03:22:00,
2013-07-07 22:28:00,75.0,70.5,29.93,SW,236,0.0,0.0,86,0.00,,,0.00,Wunderground v.1.15,2013-07-08 03:28:00,
2013-07-07 22:34:00,75.0,70.5,29.93,SW,236,0.0,0.0,86,0.00,,,0.00,Wunderground v.1.15,2013-07-08 03:34:00,
2013-07-07 22:40:00,74.9,70.4,29.93,SW,236,0.0,0.0,86,0.00,,,0.00,Wunderground v.1.15,2013-07-08 03:40:00,
2013-07-07 22:46:00,74.8,70.3,29.93,SW,236,0.0,0.0,86,0.00,,,0.00,Wunderground v.1.15,2013-07-08 03:46:00,
2013-07-07 22:52:00,74.7,70.6,29.93,SW,236,0.0,0.0,87,0.00,,,0.00,Wunderground v.1.15,2013-07-08 03:52:00,
2013-07-07 22:58:00,74.7,70.6,29.93,SW,236,0.0,2.0,87,0.00,,,0.00,Wunderground v.1.15,2013-07-08 03:58:00,
2013-07-07 23:02:00,74.6,70.5,29.93,SW,236,0.0,0.0,87,0.00,,,0.00,Wunderground v.1.15,2013-07-08 04:02:00,
2013-07-07 23:04:00,74.6,70.5,29.93,SW,236,0.0,0.0,87,0.00,,,0.00,Wunderground v.1.15,2013-07-08 04:04:00,
2013-07-07 23:06:00,74.6,70.5,29.93,SW,236,0.0,1.0,87,0.00,,,0.00,Wunderground v.1.15,2013-07-08 04:06:00,
2013-07-07 23:10:00,74.7,70.6,29.93,SW,236,0.0,1.0,87,0.00,,,0.00,Wunderground v.1.15,2013-07-08 04:10:00,
2013-07-07 23:12:00,74.7,70.6,29.93,SW,236,0.0,1.0,87,0.00,,,0.00,Wunderground v.1.15,2013-07-08 04:12:00,
2013-07-07 23:18:00,74.7,70.6,29.93,SW,236,0.0,1.0,87,0.00,,,0.00,Wunderground v.1.15,2013-07-08 04:18:00,
2013-07-07 23:24:00,74.8,70.7,29.94,SW,236,0.0,0.0,87,0.00,,,0.00,Wunderground v.1.15,2013-07-08 04:24:00,
2013-07-07 23:30:00,74.8,70.7,29.94,SW,236,0.0,0.0,87,0.00,,,0.00,Wunderground v.1.15,2013-07-08 04:30:00,
2013-07-07 23:36:00,74.7,70.6,29.94,SW,236,0.0,0.0,87,0.00,,,0.00,Wunderground v.1.15,2013-07-08 04:36:00,
2013-07-07 23:42:00,74.7,70.6,29.94,SW,236,0.0,0.0,87,0.00,,,0.00,Wunderground v.1.15,2013-07-08 04:42:00,
2013-07-07 23:48:00,74.7,70.6,29.94,SW,236,0.0,1.0,87,0.00,,,0.00,Wunderground v.1.15,2013-07-08 04:48:00,
2013-07-07 23:54:00,74.6,70.5,29.94,SW,236,0.0,0.0,87,0.00,,,0.00,Wunderground v.1.15,2013-07-08 04:54:00,